Regional Weather Roundup
Issued by NWS

Home | Current Version | Previous Version | Text Only | Print | Product List | Glossary Off
Versions: 1 2 3 4 5 6 7 8 9 10 11 12 13 14 15 16 17 18 19 20 21 22 23 24 25 26 27 28 29 30 31 32 33 34 35 36 37 38 39 40 41 42 43 44 45 46 47 48 49 50

000
ASUS43 KIND 172159
RWRIN

WEATHER ROUNDUP FOR INDIANA
NATIONAL WEATHER SERVICE INDIANAPOLIS IN
600 PM EDT FRI APR 17 2015

NOTE: "FAIR" INDICATES FEW OR NO CLOUDS BELOW 12,000 FEET WITH NO
SIGNIFICANT WEATHER AND/OR OBSTRUCTIONS TO VISIBILITY.

* - STATION DOES NOT REPORT WEATHER SUCH AS PRECIPITATION OR FOG.

+ - STATION NOT QUALITY CONTROLLED BY THE NATIONAL WEATHER SERVICE.
    USE DATA WITH CAUTION...ESPECIALLY DEWPOINT AND RELATIVE
    HUMIDITY OBSERVATIONS.

INZ001>003-010>013-019-020-172300-
NORTHWEST INDIANA

CITY           SKY/WX    TMP DP  RH WIND       PRES   REMARKS
GARY /AIRPORT/ PTSUNNY   72  37  28 E9        30.01F
RENSSELAER +   SUNNY     77  43  29 W6        30.01F

$$

LMZ046-743>745-172300-
SOUTHERN LAKE MICHIGAN

STATION/POSITION TIME  TEMP WIND        PRES
                       AIR  DIR/SP/G
                 (UTC) (F)  (DEG/KT/KT) (MB)
BURNS HARBOR     2100   59   80/  9/ 11 1016.9F
MICHIGAN CITY    2100   63   30/ 10/ 11   N/A
4NW MICH CITY    2100   56                N/A

$$

INZ004-005-014>016-021>024-172300-
NORTH CENTRAL INDIANA

CITY           SKY/WX    TMP DP  RH WIND       PRES   REMARKS
ELKHART        SUNNY     75  37  25 W9        30.02S
GOSHEN         MOSUNNY   72  46  39 W8        30.01S
PERU/GRISSOM   MOSUNNY   74  48  38 W6        30.02F
SOUTH BEND     MOSUNNY   76  41  28 NW9       30.03S

$$

INZ006>009-017-018-025>027-172300-
NORTHEAST INDIANA

CITY           SKY/WX    TMP DP  RH WIND       PRES   REMARKS
ANGOLA *+      SUNNY     73  45  35 NW7       30.01S
FORT WAYNE     PTSUNNY   76  42  29 W7        30.02F

$$

INZ028-029-035-036-043>045-051>053-172300-
WEST CENTRAL INDIANA

CITY           SKY/WX    TMP DP  RH WIND       PRES   REMARKS
CRAWFORDSVL +  MOSUNNY   71  33  24 CALM      30.03F
GREENCASTLE +  FAIR      72  39  30 NE5       30.04S
LAFAYETTE      MOSUNNY   74  43  32 CALM      30.02F
TERRE HAUTE    MOSUNNY   76  48  37 E3        30.02F

$$

INZ030>032-037>040-046>048-054>057-064-065-172300-
CENTRAL INDIANA

CITY           SKY/WX    TMP DP  RH WIND       PRES   REMARKS
COLUMBUS       SUNNY     73  34  23 CALM      30.03F
INDIANAPOLIS   PTSUNNY   75  42  30 VRB5      30.02F
-EAGLE CREEK   MOSUNNY   74  41  30 W3        30.02F
KOKOMO *+      MOSUNNY   75  46  35 W6        30.03S
MT COMFORT *+  MOSUNNY   75  16  10 CALM      30.04S
SHELBYVILLE    MOSUNNY   78  41  26 N3        30.02F

$$

INZ033-034-041-042-049-050-058-059-172300-
EAST CENTRAL INDIANA

CITY           SKY/WX    TMP DP  RH WIND       PRES   REMARKS
MUNCIE         PTSUNNY   73  39  29 CALM      30.03F

$$

INZ060-061-067>069-081>083-085>088-172300-
SOUTHWEST INDIANA

CITY           SKY/WX    TMP DP  RH WIND       PRES   REMARKS
EVANSVILLE     CLOUDY    75  57  53 SE3       30.01F
HUNTINGBURG *+ CLOUDY    73  59  60 W5        30.02S

$$

INZ062-063-066-070>080-084-089>092-172300-
SOUTH CENTRAL AND SOUTHEAST INDIANA

CITY           SKY/WX    TMP DP  RH WIND       PRES   REMARKS
BLOOMINGTON    MOSUNNY   77  45  32 CALM      30.01F
MADISON *+     CLOUDY    75  43  31 NW3       30.04S

$$




USA.gov is the U.S. government's official web portal to all federal, state and local government web resources and services.